This is the latest recevied weather packets stored in our database for station/object KG7QQL. If no packets are shown the sender has not sent any weather packets the latest 10 day(s).
| Time | Temp. | Humidity | Pressure | Rain* | Wind** | Luminosity | Snow |
|---|---|---|---|---|---|---|---|
| 1777870075 | 17.22° C | 63% | - | 0 mm | - | - | - |
| 1777869772 | 16.67° C | 62% | - | 0 mm | - | - | - |
| 1777869469 | 16.67° C | 61% | - | 0 mm | - | - | - |
| 1777869166 | 17.22° C | 60% | - | 0 mm | - | - | - |
| 1777868864 | 17.22° C | 58% | - | 0 mm | - | - | - |
| 1777868559 | 17.78° C | 57% | - | 0 mm | - | - | - |
| 1777868251 | 17.78° C | 56% | - | 0 mm | - | - | - |
| 1777867946 | 17.78° C | 55% | - | 0 mm | - | - | - |
| 1777867643 | 18.33° C | 55% | - | 0 mm | - | - | - |
| 1777867340 | 18.89° C | 53% | - | 0 mm | - | - | - |
| 1777867036 | 19.44° C | 51% | - | 0 mm | - | - | - |
| 1777866734 | 20° C | 48% | - | 0 mm | - | - | - |
| 1777866431 | 20.56° C | 44% | - | 0 mm | - | - | - |
| 1777866128 | 20.56° C | 45% | - | 0 mm | - | - | - |
| 1777865826 | 21.11° C | 45% | - | 0 mm | - | - | - |
| 1777865523 | 21.67° C | 43% | - | 0 mm | - | - | - |
| 1777865220 | 22.22° C | 39% | - | 0 mm | - | - | - |
| 1777864917 | 22.22° C | 38% | - | 0 mm | - | - | - |
| 1777864614 | 22.22° C | 38% | - | 0 mm | - | - | - |
| 1777864310 | 22.78° C | 38% | - | 0 mm | - | - | - |
| 1777864007 | 22.78° C | 37% | - | 0 mm | - | - | - |
| 1777863704 | 22.78° C | 38% | - | 0 mm | - | - | - |
| 1777863400 | 22.78° C | 39% | - | 0 mm | - | - | - |
| 1777863097 | 22.78° C | 39% | - | 0 mm | - | - | - |
| 1777862795 | 22.78° C | 40% | - | 0 mm | - | - | - |
* Rain latest hour (hover to see other rain measurements)
** Current wind speed in m/s (hover to see current wind gust speed)